USA 149 (DSP 20)

Last updated on Sun Apr 12 2026 00:02:50 GMT+0000 (Coordinated Universal Time)

1 26356U 00024A 26101.53743762 .00000101 00000+0 00000+0 0 9995 2 26356 13.1214 12.3198 0001237 355.8581 219.7092 1.00270549 32247
UTC large
Height (km)
Speed (km/s)
/
Latitude / Longitude
Inclination (degrees)
Orbital Period (minutes)
Azimuth
Elevation
Range (km)
Doppler Factor

Next 0 passes for location: London (51.5072 / 0.1276)

Sorry there are no passes over London.
USA 149 (DSP 20)